Regional Weather Roundup
Issued by NWS

Home | Current Version | Previous Version | Text Only | Print | Product List | Glossary On
Versions: 1 2 3 4 5 6 7 8 9 10 11 12 13 14 15 16 17 18 19 20 21 22 23 24 25 26 27 28 29 30 31 32 33 34 35 36 37 38 39 40 41 42 43 44 45 46 47 48 49 50
000
ASUS43 KTOP 280159
RWRKS

WEATHER ROUNDUP FOR KANSAS
NATIONAL WEATHER SERVICE GOODLAND KS
900 PM CDT WED JUL 27 2016

NOTE:  "FAIR" INDICATES FEW OR NO CLOUDS BELOW 12,000 FEET WITH NO
SIGNIFICANT WEATHER AND/OR OBSTRUCTIONS TO VISIBILITY.

KSZ001>006-013>018-027>032-041>047-280300-
NORTHWEST KANSAS

CITY           SKY/WX    TMP DP  RH WIND       PRES   REMARKS
GOODLAND       CLEAR     77  64  64 E7        30.06R
HAYS           CLEAR     84  64  51 E5        29.99R
HILL CITY      CLEAR     80  70  71 E6        30.01R
RUSSELL        CLEAR     84  65  52 E7        29.97R
$$

KSZ061>065-074>080-084>089-280300-
SOUTHWEST KANSAS

CITY           SKY/WX    TMP DP  RH WIND       PRES   REMARKS
DODGE CITY     PTCLDY    76  71  85 SE6       29.99R
ELKHART          N/A     68  63  84 MISG        N/A
GARDEN CITY    CLEAR     76  69  79 S6        30.01R
GREAT BEND     PTCLDY    82  66  57 SE7       29.96R
LIBERAL        CLOUDY    73  66  78 SW12      30.05R
$$

KSZ066>073-081>083-090>101-280300-
SOUTHEAST KANSAS

CITY           SKY/WX    TMP DP  RH WIND       PRES   REMARKS
CHANUTE        CLOUDY    83  77  82 CALM      29.91S
COFFEYVILLE    PTCLDY    83  74  74 S3        29.91R
HUTCHINSON     PTCLDY    82  73  74 E5        29.96R
NEWTON         CLEAR     82  74  76 CALM      29.97R
PARSONS        CLOUDY    81  76  84 MISG      29.93R
WICHITA INTL   PTCLDY    86  70  58 E8        29.94R
WICHITA JABRA  CLEAR     81  72  74 E3        29.94R
WINFIELD       CLOUDY    86  73  65 E6        29.94R
$$

KSZ007>012-019>026-033>040-048>060-102>105-280300-
NORTHEAST KANSAS

CITY           SKY/WX    TMP DP  RH WIND       PRES   REMARKS
CONCORDIA      CLEAR     82  71  69 CALM      29.98R
EMPORIA        CLEAR     83  74  74 E3        29.94R
LAWRENCE       CLEAR     76  73  91 NE3       29.92R
MANHATTAN      CLEAR     79  71  76 CALM      29.93R
OLATHE IND     CLEAR     81  72  74 NW5       29.94R
OLATHE EXE     CLEAR     84  68  58 N5        29.93R
SALINA         CLEAR     88  70  55 E6        29.94R
TOPEKA BILLARD   N/A     80  73  79 MISG      29.92R
TOPEKA FORBES  CLEAR     82  74  76 CALM      29.93R
$$




USA.gov is the U.S. government's official web portal to all federal, state and local government web resources and services.